[[{"header":{"parameterUnit":"m.s-1","parameterCategory":1,"la1":30.2991,"la2":30.254,"lo1":-89.0895,"lo2":-89.0444,"dy":0.0017,"dx":0.0017,"nx":28,"ny":28,"refTime":"2025-02-09T03:00:00:Z","depth":0,"parameterNumber":2,"parameterNumberName":"U-component_of_WINDS"},"data":[0,0,0,0,0,0,0,0,0,0,0,0,0,0,0,0,0,0,0,0,0,0,0,0,0,0,0,0,0,0,0,0,0,0,0,0,0,0,0,0,0,0,0,0,0,0,0,0,0,0,0,0,0,0,0,0,0,0,-4.2135,-4.2135,0,-4.2178,-4.2178,-4.2179,-4.2099,-4.2096,-4.2093,-4.2091,-4.2135,-4.2139,-4.2142,0,0,0,0,0,0,0,0,0,0,0,0,0,-4.1987,-4.199,-4.2135,-4.2136,-4.2136,-4.2178,-4.2178,-4.2179,-4.2099,-4.2096,-4.2093,-4.209,-4.2134,-4.2138,-4.2143,0,0,0,0,0,0,0,0,0,0,0,0,0,-4.2042,-4.1991,-4.2135,-4.2101,-4.2099,-4.2177,-4.2178,-4.2179,-4.21,-4.2096,-4.2092,-4.2088,-4.2132,-4.2138,-4.2143,-4.2257,0,0,-4.216,-4.2162,0,0,0,0,0,0,0,0,-4.2039,-4.2048,-4.2106,-4.2104,-4.2101,-4.2129,-4.2142,-4.2205,-4.2101,-4.21,-4.2091,-4.2086,-4.2136,-4.2141,-4.2158,-4.2259,-4.226,-4.216,-4.2164,-4.2166,-4.2168,0,0,0,0,0,0,0,-4.2036,-4.2046,-4.2152,-4.2107,-4.2104,-4.2085,-4.2088,-4.2153,-4.214,-4.2099,-4.2094,-4.21,-4.2134,-4.2153,-4.2158,-4.2261,-4.216,-4.2165,-4.2168,-4.2171,-4.2459,-4.2463,0,0,0,0,0,0,-4.2036,-4.2043,-4.215,-4.2153,-4.206,-4.2091,-4.2095,-4.2124,-4.2139,-4.2137,-4.2103,-4.2096,-4.2145,-4.2152,-4.216,-4.2293,-4.2166,-4.2171,-4.2174,-4.2454,-4.246,-4.2464,0,0,0,0,0,0,-4.2033,-4.2046,-4.2149,-4.2097,-4.2108,-4.2098,-4.2131,-4.2127,-4.2145,-4.2142,-4.2139,-4.2124,-4.2143,-4.2152,-4.2233,-4.2294,-4.2174,-4.2179,-4.2449,-4.2456,-4.2462,-4.2562,0,0,0,0,0,0,-4.2029,-4.2045,-4.2088,-4.2098,-4.2111,-4.2221,-4.2135,-4.2131,-4.2155,-4.2146,-4.2161,-4.216,-4.214,-4.2226,-4.2239,-4.2299,-4.2183,-4.2444,-4.2452,-4.246,-4.2553,-4.2571,-4.2587,0,0,0,0,0,-4.2024,-4.2114,-4.209,-4.2104,-4.2164,-4.2225,-4.2232,-4.2208,-4.216,-4.2203,-4.2201,-4.2159,-4.2286,-4.2235,-4.2249,-4.2312,-4.244,-4.245,-4.2459,-4.2546,-4.2568,-4.2586,0,0,0,0,0,0,-4.211,-4.2115,-4.2088,-4.2184,-4.2205,-4.2211,-4.2264,-4.2232,-4.2266,-4.2256,-4.2225,-4.2229,-4.2317,-4.2323,-4.2266,-4.2423,-4.2355,-4.2368,-4.2416,-4.2437,-4.2453,-4.2449,-4.2187,0,0,0,0,0,-4.2141,-4.219,-4.2191,-4.2276,-4.2288,-4.2275,-4.23,-4.228,-4.23,-4.2308,-4.2312,-4.2333,-4.2378,-4.2408,-4.2449,-4.2555,-4.2557,-4.2605,-4.2622,-4.2636,-4.2647,-4.2704,-4.2726,-4.2497,-4.2496,-4.2496,0,0,-4.2204,-4.2212,-4.2245,-4.2294,-4.2307,-4.2359,-4.2282,-4.234,-4.2378,-4.2317,-4.2394,-4.2398,-4.242,-4.2515,-4.2556,-4.2522,-4.2711,-4.2648,-4.2659,-4.2663,-4.2717,-4.2738,-4.2758,-4.2503,-4.2502,-4.2501,0,0,-4.2344,-4.2356,-4.2428,-4.2444,-4.2466,-4.2457,-4.2475,-4.2487,-4.2487,-4.2564,-4.252,-4.2565,-4.2643,-4.266,-4.2679,-4.2831,-4.2794,-4.2845,-4.2932,-4.2988,-4.3006,-4.3022,-4.3076,-4.3095,-4.2857,-4.2857,-4.2857,0,-4.242,-4.2495,-4.2469,-4.2531,-4.2554,-4.2502,-4.2575,-4.2592,-4.2626,-4.2644,-4.2605,-4.2702,-4.2713,-4.2811,-4.2849,-4.2866,-4.2886,-4.2842,-4.3006,-4.3021,-4.3036,-4.3086,-4.3107,-4.2863,-4.2863,-4.2862,-4.2861,0,-4.2587,-4.2641,-4.2697,-4.2731,-4.2761,-4.2828,-4.2813,-4.2847,-4.2825,-4.2821,-4.2901,-4.2913,-4.2956,-4.2978,-4.2957,-4.3074,-4.3052,-4.3011,-4.2941,-4.3064,-4.3111,-4.313,-4.2872,-4.287,-4.2868,-4.2866,0,0,-4.278,-4.2802,-4.2823,-4.2838,-4.286,-4.2901,-4.2968,-4.301,-4.3039,-4.3066,-4.312,-4.3189,-4.315,-4.3172,-4.3154,-4.3203,-4.3323,-4.3155,-4.3155,-4.3185,-4.3453,-4.3483,-4.3506,-4.33,-4.3303,-4.3306,-4.3451,0,-4.2919,-4.3032,-4.3012,-4.3121,-4.3171,-4.3125,-4.3182,-4.3202,-4.3201,-4.3244,-4.3243,-4.3291,-4.3238,-4.3251,-4.3298,-4.3298,-4.3376,-4.3288,-4.335,-4.3352,-4.3344,-4.3531,-4.3562,-4.3698,-4.3469,-4.3472,-4.3474,0,-4.3095,-4.3129,-4.3244,-4.326,-4.328,-4.3332,-4.337,-4.3412,-4.3434,-4.343,-4.3457,-4.3429,-4.3496,-4.3427,-4.3519,-4.3459,-4.3484,-4.3489,-4.3493,-4.3497,-4.3419,-4.3538,-4.3741,-4.3761,-4.3503,-4.3501,-4.3499,0,-4.3224,-4.3298,-4.3377,-4.3392,-4.3413,-4.345,-4.3461,-4.348,-4.3507,-4.3541,-4.3559,-4.36,-4.3623,-4.3656,-4.3641,-4.3592,-4.3736,-4.3666,-4.3734,-4.3735,-4.3764,-4.3762,-4.3973,-4.3783,-4.3783,-4.3783,-4.3782,0,-4.338,-4.3452,-4.3435,-4.3483,-4.3563,-4.354,-4.362,-4.3625,-4.3643,-4.3692,-4.3656,-4.3702,-4.3681,-4.3726,-4.3716,-4.3793,-4.3804,-4.3803,-4.3798,-4.3805,-4.3805,-4.3819,-4.3809,-4.3788,-4.3787,-4.3786,-4.3785,0,-4.3535,-4.3527,-4.3609,-4.3623,-4.3628,-4.3687,-4.3699,-4.3744,-4.3742,-4.3804,-4.3818,-4.3814,-4.3866,-4.3855,-4.3913,-4.3905,-4.4003,-4.3988,-4.3995,-4.3991,-4.4059,-4.4053,-4.4284,-4.4314,-4.4107,-4.4109,-4.4111,0,-4.3634,-4.3688,-4.3709,-4.3739,-4.3753,-4.3802,-4.383,-4.3812,-4.3843,-4.3875,-4.3917,-4.3966,-4.4004,-4.409,-4.4092,-4.4136,-4.4121,-4.42,-4.4127,-4.4133,-4.4121,-4.4117,-4.4123,-4.4213,-4.4216,-4.4218,-4.4219,0,-4.3811,-4.3805,-4.3846,-4.3888,-4.3923,-4.3955,-4.3983,-4.4011,-4.3994,-4.4032,-4.4085,-4.4115,-4.4174,-4.4224,-4.4265,-4.4276,-4.4246,-4.4243,-4.426,-4.4266,-4.4268,-4.4267,-4.4032,-4.4236,-4.4235,-4.4233,-4.4233,-4.4232,-4.394,-4.3986,-4.4009,-4.4057,-4.4077,-4.4105,-4.4149,-4.4153,-4.4197,-4.4244,-4.4231,-4.4292,-4.4316,-4.4368,-4.4385,-4.4433,-4.4403,-4.4429,-4.4436,-4.4442,-4.445,-4.4262,-4.444,-4.444,-4.4439,-4.4439,-4.4439,0,-4.4113,-4.4126,-4.4171,-4.4213,-4.4252,-4.4221,-4.4252,-4.4286,-4.434,-4.4365,-4.4404,-4.4466,-4.4515,-4.4522,-4.4569,-4.4606,-4.4593,-4.4618,-4.4614,-4.4618,-4.4474,-4.4453,-4.4628,-4.4628,-4.4628,-4.4628,-4.4628,-4.4628,-4.4208,-4.4285,-4.4283,-4.437,-4.4383,-4.4442,-4.4462,-4.4488,-4.4508,-4.458,-4.462,-4.4625,-4.4644,-4.4692,-4.4735,-4.4736,-4.4755,-4.4786,-4.4781,-4.4646,-4.4627,-4.4609,-4.459,-4.479,-4.479,-4.492,-4.4922,-4.4923]},{"header":{"parameterUnit":"m.s-1","parameterCategory":1,"la1":30.2991,"la2":30.254,"lo1":-89.0895,"lo2":-89.0444,"dy":0.0017,"dx":0.0017,"nx":28,"ny":28,"refTime":"2025-02-09T03:00:00:Z","depth":0,"parameterNumber":3,"parameterNumberName":"V-component_of_WINDS"},"data":[0,0,0,0,0,0,0,0,0,0,0,0,0,0,0,0,0,0,0,0,0,0,0,0,0,0,0,0,0,0,0,0,0,0,0,0,0,0,0,0,0,0,0,0,0,0,0,0,0,0,0,0,0,0,0,0,0,0,1.5064,1.5063,0,1.5043,1.5043,1.5043,1.4994,1.4993,1.4992,1.4991,1.4967,1.4968,1.4968,0,0,0,0,0,0,0,0,0,0,0,0,0,1.506,1.506,1.5064,1.5063,1.5063,1.5044,1.5043,1.5043,1.4994,1.4993,1.4991,1.499,1.4967,1.4968,1.4968,0,0,0,0,0,0,0,0,0,0,0,0,0,1.5053,1.506,1.5064,1.5036,1.5034,1.5044,1.5043,1.5043,1.4994,1.4993,1.4991,1.499,1.4967,1.4968,1.4968,1.5002,0,0,1.497,1.497,0,0,0,0,0,0,0,0,1.5053,1.5053,1.5041,1.5038,1.5035,1.502,1.5033,1.5029,1.4994,1.5009,1.4991,1.4989,1.4986,1.4985,1.4984,1.5001,1.5,1.497,1.497,1.497,1.497,0,0,0,0,0,0,0,1.5054,1.5053,1.5056,1.504,1.5037,1.5025,1.5022,1.5032,1.5006,1.5008,1.5004,1.5002,1.4984,1.4984,1.4983,1.5,1.497,1.497,1.4971,1.4971,1.5047,1.5049,0,0,0,0,0,0,1.5058,1.5054,1.5056,1.5055,1.5041,1.5026,1.5023,1.5026,1.5006,1.5002,1.5004,1.5,1.4984,1.4983,1.4982,1.5023,1.497,1.4971,1.4971,1.5045,1.5047,1.5049,0,0,0,0,0,0,1.5058,1.5059,1.5057,1.5054,1.5052,1.5028,1.5032,1.5027,1.5026,1.5003,1.4998,1.5008,1.4983,1.4982,1.4999,1.5021,1.4971,1.4971,1.5043,1.5046,1.5048,1.5103,0,0,0,0,0,0,1.5058,1.5059,1.5072,1.5054,1.5053,1.5074,1.5033,1.5027,1.5028,1.5023,1.5006,1.5002,1.4981,1.4998,1.4999,1.5021,1.4972,1.5041,1.5044,1.5047,1.5099,1.5107,1.5114,0,0,0,0,0,1.5058,1.5086,1.5072,1.5073,1.5068,1.5075,1.5074,1.505,1.503,1.5042,1.5028,1.5002,1.5019,1.5,1.5001,1.5023,1.5039,1.5043,1.5047,1.5096,1.5105,1.5114,0,0,0,0,0,0,1.5105,1.5083,1.5068,1.5091,1.5086,1.5067,1.5081,1.5061,1.5061,1.5056,1.5026,1.5023,1.5044,1.5035,1.5015,1.5057,1.5025,1.5029,1.5062,1.5071,1.5078,1.508,1.4972,0,0,0,0,0,1.5118,1.5126,1.5107,1.5129,1.5128,1.5106,1.5107,1.509,1.5083,1.508,1.5067,1.506,1.5064,1.5067,1.5069,1.5098,1.5094,1.5114,1.5121,1.5128,1.5132,1.5149,1.5158,1.5062,1.5062,1.5062,0,0,1.5145,1.5134,1.5141,1.5139,1.5132,1.5142,1.5103,1.5114,1.5121,1.5081,1.5097,1.5088,1.5078,1.5102,1.5112,1.5095,1.5158,1.5133,1.5138,1.5138,1.5154,1.5163,1.5171,1.5064,1.5064,1.5064,0,0,1.5199,1.5191,1.521,1.5206,1.5198,1.5183,1.5188,1.5173,1.5166,1.5182,1.5154,1.5161,1.5168,1.5164,1.5162,1.5219,1.5196,1.5221,1.5259,1.5277,1.5284,1.5291,1.5313,1.5321,1.5225,1.5225,1.5225,0,1.5233,1.5246,1.5222,1.5236,1.5237,1.5204,1.5224,1.522,1.5213,1.5214,1.5196,1.5206,1.5197,1.5221,1.5236,1.5235,1.5241,1.5222,1.5285,1.5292,1.5297,1.5318,1.5326,1.5228,1.5227,1.5227,1.5227,0,1.5289,1.5299,1.5316,1.5312,1.5314,1.5331,1.5311,1.5316,1.53,1.5288,1.5306,1.5295,1.5296,1.53,1.5283,1.5323,1.5313,1.5291,1.5258,1.531,1.5329,1.5336,1.5232,1.5231,1.523,1.5229,0,0,1.5369,1.5355,1.5361,1.5361,1.5351,1.5358,1.5375,1.5377,1.5383,1.538,1.5394,1.5402,1.5383,1.5381,1.5364,1.5379,1.5428,1.5355,1.5355,1.537,1.5473,1.549,1.5499,1.5413,1.5414,1.5415,1.5474,0,1.5421,1.5448,1.5429,1.546,1.547,1.5441,1.5455,1.5451,1.5442,1.5449,1.5437,1.5445,1.5417,1.5417,1.5431,1.5419,1.5448,1.5414,1.5426,1.5427,1.5429,1.5509,1.5526,1.5582,1.5481,1.5482,1.5483,0,1.5484,1.5486,1.5519,1.5511,1.5514,1.5527,1.553,1.5537,1.5533,1.5525,1.5526,1.5506,1.5522,1.5491,1.5514,1.5491,1.5495,1.5491,1.5492,1.5492,1.5458,1.5512,1.5599,1.5608,1.5494,1.5493,1.5492,0,1.5541,1.5552,1.5574,1.5574,1.5564,1.5575,1.5571,1.5565,1.5569,1.5572,1.5574,1.5578,1.558,1.5583,1.5565,1.5544,1.5591,1.5558,1.5586,1.5586,1.5596,1.5596,1.5686,1.5598,1.5598,1.5598,1.5598,0,1.56,1.5622,1.5599,1.5613,1.5637,1.5615,1.564,1.5633,1.5629,1.5641,1.5616,1.5627,1.5603,1.5612,1.5598,1.5621,1.5621,1.5616,1.5612,1.5618,1.5619,1.562,1.5616,1.56,1.56,1.5599,1.5599,0,1.5667,1.5653,1.5675,1.5666,1.5664,1.5682,1.5674,1.5686,1.5676,1.5692,1.5695,1.5678,1.5689,1.5672,1.5679,1.567,1.5702,1.5691,1.5704,1.5701,1.573,1.5728,1.5824,1.5836,1.574,1.5741,1.5742,0,1.5706,1.5722,1.5716,1.5723,1.5722,1.5733,1.5738,1.5718,1.5724,1.5723,1.5736,1.5745,1.5751,1.5769,1.5758,1.5765,1.5755,1.5788,1.5755,1.5763,1.5757,1.5757,1.5759,1.5795,1.5796,1.5797,1.5798,0,1.5778,1.5771,1.5779,1.5787,1.5794,1.5798,1.58,1.5807,1.5787,1.5795,1.5807,1.5812,1.5822,1.5831,1.5836,1.5832,1.5812,1.5809,1.5815,1.5822,1.5829,1.5827,1.5723,1.5806,1.5805,1.5805,1.5804,1.5804,1.5832,1.5847,1.5846,1.5857,1.5857,1.5861,1.5873,1.5866,1.5875,1.5883,1.5871,1.5886,1.5885,1.5889,1.5888,1.59,1.5885,1.5895,1.5898,1.5901,1.5906,1.5828,1.5901,1.59,1.59,1.59,1.59,0,1.5904,1.5903,1.5913,1.5919,1.5928,1.5911,1.5913,1.5922,1.5936,1.5937,1.5945,1.5959,1.597,1.5961,1.5969,1.5981,1.5972,1.5984,1.5983,1.5983,1.5918,1.5911,1.5991,1.5991,1.5991,1.5991,1.5991,1.5991,1.5942,1.5966,1.596,1.5985,1.5983,1.5999,1.6003,1.6007,1.6008,1.6026,1.6035,1.603,1.6028,1.6037,1.6046,1.6043,1.6048,1.6063,1.6057,1.5996,1.5987,1.5979,1.5973,1.6064,1.6064,1.6121,1.6122,1.6122]}]]